"2009-11-27 00:00:00",1451806,5.2,312,5.49,1.163,13.43,105.2097,12.61,13.73,18.88,0,110.3,13.28,13.41,274.0
"2009-11-27 00:00:30",1451807,6.245,311.5,6.488,1.035,13.85,105.2097,12.61,13.59,19.11,0,110.3,13.28,13.41,273.5
"2009-11-27 00:01:00",1451808,5.866,308.1,1.885,0.243,12.89,105.2097,12.61,13.6,19,0,110.3,13.32,13.41,270.1
"2009-11-27 00:01:30",1451809,7.091,308.5,7.927,1.101,15.35,105.2097,12.61,13.79,17.73,0,110.3,13.29,13.41,270.5
"2009-11-27 00:02:00",1451810,6.186,305.9,4.686,0.771,13.21,105.2097,12.61,13.59,18.09,0,110.3,13.29,13.41,267.9
"2009-11-27 00:02:30",1451811,6.984,309.6,5.07,1.449,14.44,105.2097,12.61,13.71,18.17,0,110.3,13.29,13.41,271.6
"2009-11-27 00:03:00",1451812,7.567,312.4,7.436,1.223,15.7,105.2097,12.61,13.85,17.8,0,110.3,13.29,13.41,274.4
"2009-11-27 00:03:30",1451813,7.353,306,8.7,1.208,14.79,105.2097,12.61,13.74,17.55,0,110.3,13.29,13.41,268.0
"2009-11-27 00:04:00",1451814,6.605,298.5,1.569,0.175,12.69,105.2097,12.61,13.6,16.06,0,110.3,13.33,13.41,260.5
"2009-11-27 00:04:30",1451815,7.966,307.5,8.59,1.409,14.65,105.2106,12.61,13.65,15.81,0,110.3,13.29,13.41,269.5
"2009-11-27 00:05:00",1451816,7.605,305.8,6.783,1.315,15.15,105.2109,12.61,13.75,15.42,0,110.3,13.3,13.41,267.8
"2009-11-27 00:05:30",1451817,6.508,304,5.272,0.235,13.14,105.2133,12.62,13.61,15.12,0,110.3,13.3,13.41,266.0
"2009-11-27 00:06:00",1451818,6.329,299.8,2.7,0.42,13.47,105.2154,12.62,13.6,15,0,110.3,13.3,13.42,261.8
"2009-11-27 00:06:30",1451819,7.148,302.4,5.767,1.043,15.76,105.2163,12.63,13.79,14.54,0,110.3,13.3,13.42,264.4
"2009-11-27 00:07:00",1451820,6.283,299.1,3.74,0.913,13.99,105.2198,12.64,13.61,14.22,0,110.3,13.3,13.43,261.1
"2009-11-27 00:07:30",1451821,6.984,304.1,8.68,1.38,15.08,105.2231,12.64,13.68,14.23,0,110.3,13.3,13.44,266.1
"2009-11-27 00:08:00",1451822,7.582,303,5.951,1.382,16.16,105.2237,12.64,13.81,14.48,0,110.3,13.3,13.44,265.0
"2009-11-27 00:08:30",1451823,6.858,300.3,8.22,1.032,14.62,105.2278,12.66,13.73,14.3,0,110.3,13.3,13.45,262.3
"2009-11-27 00:09:00",1451824,5.598,299.5,3.62,0.308,12.78,105.2487,12.71,13.64,14.16,0,110.3,13.34,13.51,261.5
"2009-11-27 00:09:30",1451825,5.377,301.9,2.028,0.346,12.78,105.2669,12.76,13.67,14.06,0,110.3,13.34,13.55,263.9
"2009-11-27 00:10:00",1451826,6.873,306.5,6.38,1.431,15.27,105.2756,12.78,13.78,14.03,0,110.3,13.3,13.57,268.5
"2009-11-27 00:10:30",1451827,6.623,307.3,5.517,1.103,14.41,105.2756,12.78,13.84,14.07,0,110.3,13.31,13.57,269.3
"2009-11-27 00:11:00",1451828,5.82,303.1,1.182,0.327,13.45,105.2783,12.78,13.69,13.88,0,110.3,13.34,13.58,265.1
"2009-11-27 00:11:30",1451829,6.303,305.9,7.305,1.439,14.88,105.2792,12.79,13.86,13.9,0,110.3,13.31,13.58,267.9
"2009-11-27 00:12:00",1451830,7.362,308.6,6.895,1.133,14.85,105.2882,12.81,13.77,13.69,0,110.3,13.31,13.61,270.6
"2009-11-27 00:12:30",1451831,6.98,304.4,6.563,1.107,15.19,105.3054,12.85,13.9,13.78,0,110.3,13.31,13.65,266.4
"2009-11-27 00:13:00",1451832,7.134,308.6,8.21,1.377,15.63,105.3127,12.87,13.86,13.68,0,110.3,13.31,13.67,270.6
"2009-11-27 00:13:30",1451833,6.307,307.7,6.441,1.223,14.96,105.313,12.87,13.96,13.75,0,110.3,13.31,13.67,269.7
"2009-11-27 00:14:00",1451834,6.967,314.3,5.593,1.33,15.4,105.313,12.87,13.85,13.6,0,110.3,13.31,13.67,276.3
"2009-11-27 00:14:30",1451835,5.423,306.2,2.041,0.185,12.97,105.313,12.87,13.8,13.48,0,110.3,13.34,13.67,268.2
"2009-11-27 00:15:00",1451836,5.091,304.4,2.804,0.196,12.93,105.3142,12.88,13.83,13.5,0,110.3,13.34,13.67,266.4
"2009-11-27 00:15:30",1451837,6.247,308.3,5.977,1.345,15.13,105.3223,12.9,13.9,13.57,0,110.3,13.3,13.69,270.3
"2009-11-27 00:16:00",1451838,5.449,304.1,6.108,1.245,15.05,105.3356,12.93,14,13.7,0,110.3,13.3,13.73,266.1
"2009-11-27 00:16:30",1451839,4.696,300.7,1.529,0.174,13.41,105.3438,12.95,13.86,13.5,0,110.3,13.34,13.75,262.7
"2009-11-27 00:17:00",1451840,4.679,300.4,1.687,0.102,13.6,105.3466,12.96,13.85,13.51,0,110.3,13.34,13.76,262.4
"2009-11-27 00:17:30",1451841,5.282,305.1,4.822,0.993,14.36,105.3469,12.96,13.91,13.52,0,110.3,13.3,13.76,267.1
"2009-11-27 00:18:00",1451842,6.255,311.7,7.338,1.316,16.41,105.3469,12.96,14.01,13.53,0,110.3,13.3,13.76,273.7
"2009-11-27 00:18:30",1451843,5.341,305.8,5.787,0.795,14.29,105.3469,12.96,14.05,13.45,0,110.3,13.31,13.76,267.8
"2009-11-27 00:19:00",1451844,5.526,316.5,3.58,1.074,14.43,105.3469,12.96,13.92,13.22,0,110.3,13.31,13.76,278.5
"2009-11-27 00:19:30",1451845,5.76,313.2,2.116,0.557,13.07,105.3469,12.96,13.96,13.23,0,110.3,13.31,13.76,275.2
"2009-11-27 00:20:00",1451846,6.971,318.8,7.14,1.457,15.31,105.3469,12.96,14.03,13.18,0,110.3,13.31,13.76,280.8
"2009-11-27 00:20:30",1451847,5.843,313.4,1.217,0.169,12.98,105.3469,12.96,13.93,12.96,0,110.3,13.35,13.76,275.4
"2009-11-27 00:21:00",1451848,5.744,312.1,3.555,0.943,13.39,105.3469,12.96,13.95,12.92,0,110.3,13.31,13.76,274.1
"2009-11-27 00:21:30",1451849,6.408,315.4,6.92,1.388,15.2,105.3469,12.96,14.07,12.94,0,110.3,13.31,13.76,277.4
"2009-11-27 00:22:00",1451850,5.67,310.3,3.272,0.297,13.4,105.3469,12.96,13.93,12.78,0,110.3,13.35,13.76,272.3
"2009-11-27 00:22:30",1451851,5.52,312.1,1.821,0.445,13.59,105.3469,12.96,13.95,12.69,0,110.3,13.35,13.76,274.1
"2009-11-27 00:23:00",1451852,5.537,314.9,3.412,0.744,13.96,105.3469,12.96,13.96,12.67,0,110.3,13.31,13.76,276.9
"2009-11-27 00:23:30",1451853,5.581,314.3,5.973,1.129,15.55,105.3469,12.96,14.2,12.92,0,110.3,13.32,13.76,276.3
"2009-11-27 00:24:00",1451854,5.293,311.4,7.411,1.217,15.52,105.3475,12.96,14.17,12.96,0,110.3,13.32,13.76,273.4
"2009-11-27 00:24:30",1451855,5.75,316.8,7.526,1.124,14.89,105.3469,12.96,14.02,12.86,0,110.3,13.32,13.76,278.8
"2009-11-27 00:25:00",1451856,4.873,313.5,4.164,0.937,13.6,105.3492,12.97,14.11,12.88,0,110.3,13.32,13.76,275.5
"2009-11-27 00:25:30",1451857,6.283,312.9,7.354,1.428,14.37,105.3513,12.97,13.99,12.71,0,110.3,13.32,13.77,274.9
"2009-11-27 00:26:00",1451858,5.05,309.4,1.884,0.172,12.81,105.3528,12.98,14.01,12.74,0,110.3,13.35,13.77,271.4
"2009-11-27 00:26:30",1451859,5.978,316.3,6.753,1.266,14.95,105.3546,12.98,14.14,12.87,0,110.3,13.32,13.78,278.3
"2009-11-27 00:27:00",1451860,5.53,316.6,2.903,0.688,13.29,105.3561,12.98,14.05,12.74,0,110.3,13.32,13.78,278.6
"2009-11-27 00:27:30",1451861,5.652,313.9,1.278,0.129,13.23,105.3555,12.98,13.98,12.6,0,110.3,13.35,13.78,275.9
"2009-11-27 00:28:00",1451862,5.11,313,1.589,0.188,13.6,105.3605,13,13.98,12.55,0,110.3,13.35,13.79,275.0
"2009-11-27 00:28:30",1451863,4.736,312.5,1.742,0.219,13.85,105.3626,13,13.97,12.55,0,110.3,13.36,13.80,274.5
"2009-11-27 00:29:00",1451864,5.031,315.7,5.024,1.011,14.63,105.365,13.01,14.04,12.69,0,110.3,13.32,13.80,277.7
"2009-11-27 00:29:30",1451865,7.034,319.1,7.264,1.209,17.34,105.3668,13.01,14.24,13.09,0,110.3,13.32,13.81,281.1
"2009-11-27 00:30:00",1451866,6.861,315.5,7.382,1.283,15.57,105.3695,13.02,14.15,13.1,0,110.3,13.33,13.82,277.5
"2009-11-27 00:30:30",1451867,6.715,313.6,7.64,1.371,15.28,105.3733,13.03,14.15,13.07,0,110.3,13.32,13.83,275.6
"2009-11-27 00:31:00",1451868,4.852,309.3,6.198,0.851,13.78,105.3748,13.03,14.14,13.03,0,110.3,13.31,13.83,271.3
"2009-11-27 00:31:30",1451869,4.643,308.2,1.067,0.3,12.68,105.3784,13.04,14,12.79,0,110.3,13.35,13.84,270.2
"2009-11-27 00:32:00",1451870,5.495,314.2,7.686,1.468,14.81,105.3793,13.04,14.11,12.92,0,110.3,13.31,13.84,276.2
"2009-11-27 00:32:30",1451871,4.64,306.2,1.877,0.306,12.79,105.3819,13.05,14.03,12.86,0,110.3,13.35,13.85,268.2
"2009-11-27 00:33:00",1451872,4.794,304.4,2.474,0.573,12.84,105.3819,13.05,14,12.88,0,110.3,13.35,13.85,266.4
"2009-11-27 00:33:30",1451873,5.155,306.9,1.571,0.291,13.15,105.3822,13.05,13.99,13.01,0,110.3,13.35,13.85,268.9
"2009-11-27 00:34:00",1451874,4.704,306.2,2.255,0.22,13.59,105.3825,13.05,13.97,12.97,0,110.3,13.35,13.85,268.2
"2009-11-27 00:34:30",1451875,4.142,306.9,2.388,0.101,14.09,105.3825,13.05,14.01,12.89,0,110.3,13.35,13.85,268.9
"2009-11-27 00:35:00",1451876,5.686,310.5,5.617,1.414,17.32,105.3825,13.05,14.25,12.92,0,110.3,13.32,13.85,272.5
"2009-11-27 00:35:30",1451877,6.402,323.3,7.794,1.203,17.92,105.3814,13.05,14.18,12.38,0,110.3,13.32,13.85,285.3
"2009-11-27 00:36:00",1451878,6.197,312.2,3.951,1.095,13.3,105.3825,13.05,14.01,12.7,0,110.3,13.32,13.85,274.2
"2009-11-27 00:36:30",1451879,7.453,309.4,9.8,1.619,14.82,105.3825,13.05,14.06,13.32,0,110.3,13.33,13.85,271.4
"2009-11-27 00:37:00",1451880,6.974,309.4,7.002,1.382,14.17,105.3825,13.05,14.18,13.59,0,110.3,13.33,13.85,271.4
"2009-11-27 00:37:30",1451881,8.11,315.3,6.589,1.441,14.48,105.3825,13.05,14.1,13.52,0,110.3,13.33,13.85,277.3
"2009-11-27 00:38:00",1451882,6.458,303.5,3.438,0.409,12.74,105.3817,13.05,14.06,13.48,0,110.3,13.36,13.85,265.5
"2009-11-27 00:38:30",1451883,5.109,300.9,4.751,0.5,12.95,105.3755,13.03,13.99,13.27,0,110.3,13.36,13.83,262.9
"2009-11-27 00:39:00",1451884,5.999,303.1,3.065,0.256,13.1,105.3724,13.03,13.99,13.35,0,110.3,13.36,13.82,265.1
"2009-11-27 00:39:30",1451885,6.511,307.4,7.126,1.433,15.44,105.3625,13,14.08,13.49,0,110.3,13.33,13.80,269.4
"2009-11-27 00:40:00",1451886,6.225,311.5,7.368,1.277,16.4,105.3546,12.98,14.19,13.46,0,110.3,13.33,13.78,273.5
"2009-11-27 00:40:30",1451887,5.802,310.4,6.367,1.277,14.34,105.3492,12.97,14.06,13.32,0,110.3,13.33,13.76,272.4
"2009-11-27 00:41:00",1451888,4.62,310.1,1.198,0.235,13.1,105.3487,12.96,13.99,13.1,0,110.3,13.36,13.76,272.1
"2009-11-27 00:41:30",1451889,4.18,303.7,2.313,0.16,12.81,105.3487,12.96,14,12.84,0,110.3,13.36,13.76,265.7
"2009-11-27 00:42:00",1451890,5.805,310.3,6.77,1.419,14.93,105.3487,12.96,14.1,13.09,0,110.3,13.33,13.76,272.3
"2009-11-27 00:42:30",1451891,4.857,302.1,3.895,0.749,12.98,105.3487,12.96,13.97,13.09,0,110.3,13.33,13.76,264.1
"2009-11-27 00:43:00",1451892,5.661,307.7,8.28,1.35,14.85,105.3487,12.96,14.1,13.16,0,110.3,13.33,13.76,269.7
"2009-11-27 00:43:30",1451893,5.227,301,2.302,0.166,12.59,105.3487,12.96,13.94,13.35,0,110.3,13.36,13.76,263.0
"2009-11-27 00:44:00",1451894,4.851,299.7,1.542,0.218,12.96,105.3487,12.96,13.93,13.4,0,110.3,13.36,13.76,261.7
"2009-11-27 00:44:30",1451895,4.835,303.6,2.746,0.163,13.28,105.3487,12.96,13.93,13.35,0,110.3,13.36,13.76,265.6
"2009-11-27 00:45:00",1451896,6.317,303,7.999,1.096,15.92,105.3487,12.96,14.07,12.84,0,110.3,13.33,13.76,265.0
"2009-11-27 00:45:30",1451897,6.534,311.2,7.756,1.378,15.78,105.3487,12.96,14.08,12.68,0,110.3,13.33,13.76,273.2
"2009-11-27 00:46:00",1451898,6.221,304.9,4.337,0.805,14.17,105.3484,12.96,14.09,12.83,0,110.2,13.33,13.76,266.9
"2009-11-27 00:46:30",1451899,7.131,304.7,6.824,1.374,14.87,105.3484,12.96,13.94,12.58,0,110.3,13.33,13.76,266.7
"2009-11-27 00:47:00",1451900,6.334,297.3,3.363,0.778,12.95,105.3464,12.96,13.93,12.74,0,110.2,13.33,13.76,259.3
"2009-11-27 00:47:30",1451901,6.575,305.6,6.83,1.618,14.51,105.3478,12.96,14.11,12.66,0,110.3,13.33,13.76,267.6
"2009-11-27 00:48:00",1451902,8.85,311.1,6.385,1.344,15.96,105.3481,12.96,14,12.14,0,110.3,13.33,13.76,273.1
"2009-11-27 00:48:30",1451903,6.639,296.7,7.085,0.953,14.51,105.3487,12.96,14.06,12.37,0,110.3,13.33,13.76,258.7
"2009-11-27 00:49:00",1451904,6.67,298.9,5.72,0.935,13.65,105.3487,12.96,13.93,12.27,0,110.2,13.33,13.76,260.9
"2009-11-27 00:49:30",1451905,7.152,302.8,7.05,1.331,14.23,105.3487,12.96,13.94,12.57,0,110.3,13.33,13.76,264.8
"2009-11-27 00:50:00",1451906,6.821,306.8,9.22,1.003,14.6,105.3487,12.96,14.09,12.78,0,110.2,13.33,13.76,268.8
"2009-11-27 00:50:30",1451907,6.704,310.8,7.689,1.069,14.12,105.3487,12.96,13.94,12.6,0,110.3,13.33,13.76,272.8
"2009-11-27 00:51:00",1451908,8.18,312,7.727,1.303,15.33,105.3487,12.96,14.13,12.47,0,110.3,13.33,13.76,274.0
"2009-11-27 00:51:30",1451909,6.893,315.3,4.512,0.38,13.01,105.3487,12.96,14.01,12.05,0,110.2,13.36,13.76,277.3
"2009-11-27 00:52:00",1451910,7.905,318.1,4.898,1.232,14.47,105.3487,12.96,14.01,12.08,0,110.2,13.33,13.76,280.1
"2009-11-27 00:52:30",1451911,8.18,309.7,6.107,0.802,13.29,105.3487,12.96,14.03,12.13,0,110.2,13.33,13.76,271.7
"2009-11-27 00:53:00",1451912,9.54,315.2,7.085,1.213,16.1,105.3504,12.97,14.2,12.22,0,110.2,13.33,13.77,277.2
"2009-11-27 00:53:30",1451913,7.077,308.7,5.116,1.067,13.52,105.3583,12.99,14.03,12.17,0,110.2,13.33,13.79,270.7
"2009-11-27 00:54:00",1451914,6.126,311.2,4.734,0.387,12.92,105.3642,13,13.97,12.19,0,110.2,13.37,13.80,273.2
"2009-11-27 00:54:30",1451915,7.108,318.2,6.559,1.367,14.8,105.3631,13,14.13,12.4,0,110.2,13.34,13.80,280.2
"2009-11-27 00:55:00",1451916,6.673,312.1,5.454,0.614,13.15,105.3648,13.01,14.07,12.21,0,110.2,13.37,13.80,274.1
"2009-11-27 00:55:30",1451917,7.577,317.2,4.696,0.501,13,105.3594,12.99,14.11,12.32,0,110.2,13.37,13.79,279.2
"2009-11-27 00:56:00",1451918,8.42,329.8,8.71,1.269,15.21,105.3568,12.99,14.05,12.27,0,110.2,13.34,13.78,291.8
"2009-11-27 00:56:30",1451919,7.336,321.5,4.571,0.965,13.35,105.354,12.98,14.05,12.12,0,110.2,13.34,13.78,283.5
"2009-11-27 00:57:00",1451920,7.637,317.2,5.707,1.028,13.04,105.3504,12.97,14.05,12.13,0,110.2,13.34,13.77,279.2
"2009-11-27 00:57:30",1451921,8.04,321.5,7.2,1.315,15.88,105.3487,12.96,14.21,12.5,0,110.2,13.34,13.76,283.5
"2009-11-27 00:58:00",1451922,7.467,315,6.043,1.312,14.22,105.3487,12.96,14.1,12.6,0,110.2,13.34,13.76,277.0
"2009-11-27 00:58:30",1451923,8.46,313.9,11.47,1.577,14.72,105.3487,12.96,14.07,12.5,0,110.2,13.34,13.76,275.9
"2009-11-27 00:59:00",1451924,8.58,318.2,9.53,1.119,14.71,105.349,12.97,14.11,12.11,0,110.2,13.34,13.76,280.2
"2009-11-27 00:59:30",1451925,8.09,318.2,5.462,0.914,12.99,105.349,12.97,13.98,12.08,0,110.2,13.34,13.76,280.2
"2009-11-27 01:00:00",1451926,9.51,329.9,8.8,1.368,15.04,105.3493,12.97,14.09,12.19,0,110.2,13.34,13.76,291.9
"2009-11-27 01:00:30",1451927,7.831,319.2,4.609,1.062,13.62,105.3493,12.97,14.1,12.28,0,110.2,13.34,13.76,281.2
"2009-11-27 01:01:00",1451928,9.37,323.1,9.14,1.224,15.82,105.3445,12.95,13.98,12.23,0,110.2,13.34,13.75,285.1
"2009-11-27 01:01:30",1451929,9.8,318.6,5.884,1.41,15.87,105.3392,12.94,14.13,12.31,0,110.2,13.34,13.74,280.6
"2009-11-27 01:02:00",1451930,8.73,312.5,6.792,1.332,14.91,105.3253,12.91,14.19,12.28,0,110.2,13.34,13.70,274.5
"2009-11-27 01:02:30",1451931,7.188,309.1,3.821,0.969,12.62,105.3154,12.88,13.93,12.26,0,110.2,13.34,13.68,271.1
"2009-11-27 01:03:00",1451932,8.03,314.6,8.19,0.922,14.58,105.3163,12.88,14.06,12.38,0,110.2,13.34,13.68,276.6
"2009-11-27 01:03:30",1451933,6.298,309.9,1.211,0.245,12.53,105.3178,12.89,13.94,12.32,0,110.2,13.37,13.68,271.9
"2009-11-27 01:04:00",1451934,5.97,308.3,2.132,0.117,12.47,105.3184,12.89,13.91,12.54,0,110.2,13.37,13.68,270.3
"2009-11-27 01:04:30",1451935,6.919,310.8,6.575,1.215,14.55,105.3172,12.88,14.09,12.83,0,110.2,13.34,13.68,272.8
"2009-11-27 01:05:00",1451936,6.644,306.4,4.133,0.866,13.16,105.3147,12.88,13.97,12.82,0,110.2,13.34,13.67,268.4
"2009-11-27 01:05:30",1451937,7.544,311.6,6.517,1.299,14.3,105.2992,12.84,13.98,12.71,0,110.2,13.34,13.64,273.6
"2009-11-27 01:06:00",1451938,9.5,315.5,6.48,1.386,16.7,105.286,12.8,14.17,12.59,0,110.2,13.34,13.60,277.5
"2009-11-27 01:06:30",1451939,7.474,309.7,3.257,1.187,13.07,105.2851,12.8,13.87,12.06,0,110.2,13.34,13.60,271.7
"2009-11-27 01:07:00",1451940,6.726,310.5,6.114,1.169,13.53,105.2851,12.8,13.85,12.11,0,110.2,13.34,13.60,272.5
"2009-11-27 01:07:30",1451941,6.964,310.8,6.321,1.272,14.36,105.2881,12.81,13.99,12.46,0,110.2,13.34,13.61,272.8
"2009-11-27 01:08:00",1451942,6.224,307.5,1.434,0.151,12.42,105.2887,12.81,13.83,12.45,0,110.2,13.38,13.61,269.5
"2009-11-27 01:08:30",1451943,6.452,309.8,4.073,0.677,12.65,105.2758,12.78,13.82,12.59,0,110.2,13.34,13.58,271.8
"2009-11-27 01:09:00",1451944,6.726,304.2,4.785,0.922,13.71,105.2655,12.75,13.95,12.72,0,110.2,13.34,13.55,266.2
"2009-11-27 01:09:30",1451945,7.784,310,5.986,1.153,14.58,105.2616,12.74,13.82,12.24,0,110.2,13.34,13.54,272.0
"2009-11-27 01:10:00",1451946,8.33,314.5,7.209,1.414,15.57,105.2584,12.73,13.94,12.35,0,110.2,13.34,13.53,276.5
"2009-11-27 01:10:30",1451947,8.64,315.8,6.335,1.19,16.46,105.262,12.74,14.02,12.57,0,110.2,13.34,13.54,277.8
"2009-11-27 01:11:00",1451948,6.954,304.4,4.327,0.756,12.83,105.2623,12.74,13.76,12.38,0,110.2,13.34,13.54,266.4
"2009-11-27 01:11:30",1451949,6.777,303,5.7,0.689,13.41,105.2646,12.75,13.89,12.43,0,110.2,13.34,13.55,265.0
"2009-11-27 01:12:00",1451950,7.775,307.2,6.497,0.994,13.77,105.2623,12.74,13.81,12.38,0,110.2,13.34,13.54,269.2
"2009-11-27 01:12:30",1451951,7.666,310.8,3.232,0.25,12.7,105.2613,12.74,13.76,12.3,0,110.2,13.38,13.54,272.8
"2009-11-27 01:13:00",1451952,7.404,310.9,5.857,1.058,13.42,105.2529,12.72,13.72,12.25,0,110.2,13.34,13.52,272.9
"2009-11-27 01:13:30",1451953,7.15,310,6.001,1.19,13.33,105.2483,12.71,13.81,12.43,0,110.2,13.34,13.50,272.0
"2009-11-27 01:14:00",1451954,7.877,315.2,7.718,1.312,15.42,105.2392,12.68,13.81,12.51,0,110.2,13.34,13.48,277.2
"2009-11-27 01:14:30",1451955,7.728,315.3,7.881,1.348,15.56,105.2378,12.68,13.87,12.71,0,110.2,13.34,13.48,277.3
"2009-11-27 01:15:00",1451956,7.571,313.3,7.161,1.427,15.26,105.2379,12.68,13.94,12.65,0,110.2,13.34,13.48,275.3
"2009-11-27 01:15:30",1451957,6.957,312.4,5.723,1.138,14.37,105.2376,12.68,13.8,12.35,0,110.2,13.34,13.48,274.4
"2009-11-27 01:16:00",1451958,6.242,306.7,4.609,0.912,13.11,105.2391,12.68,13.8,12.31,0,110.2,13.34,13.48,268.7
"2009-11-27 01:16:30",1451959,6.823,308.3,5.783,1.269,13.95,105.2409,12.69,13.74,12.35,0,110.2,13.34,13.49,270.3
"2009-11-27 01:17:00",1451960,6.275,307.2,2.661,0.308,12.52,105.2418,12.69,13.67,12.33,0,110.2,13.38,13.49,269.2
"2009-11-27 01:17:30",1451961,6.314,305.9,1.947,0.579,12.56,105.243,12.69,13.67,12.26,0,110.2,13.38,13.49,267.9
"2009-11-27 01:18:00",1451962,8.37,315.3,7.72,1.463,14.64,105.245,12.7,13.72,12.42,0,110.2,13.35,13.50,277.3
"2009-11-27 01:18:30",1451963,8.11,315.6,6.572,1.325,14.88,105.2462,12.7,13.88,12.74,0,110.2,13.35,13.50,277.6
"2009-11-27 01:19:00",1451964,8.7,320,6.205,1.196,16.53,105.2462,12.7,13.9,12.52,0,110.2,13.35,13.50,282.0
"2009-11-27 01:19:30",1451965,8.48,319.1,7.418,1.213,15.8,105.2459,12.7,13.86,12.44,0,110.2,13.35,13.50,281.1
"2009-11-27 01:20:00",1451966,8.14,314.3,6.5,1.131,14.41,105.2459,12.7,13.78,12.41,0,110.2,13.34,13.50,276.3
"2009-11-27 01:20:30",1451967,7.516,310.6,4.852,1.061,13.45,105.2477,12.71,13.73,12.31,0,110.2,13.35,13.50,272.6
"2009-11-27 01:21:00",1451968,8.32,315,6.428,1.14,14.33,105.2472,12.71,13.7,12.14,0,110.2,13.34,13.50,277.0
"2009-11-27 01:21:30",1451969,7.706,309,1.057,0.3,12.68,105.2458,12.7,13.65,11.93,0,110.2,13.38,13.50,271.0
"2009-11-27 01:22:00",1451970,8.58,308.4,2.319,0.423,12.97,105.2423,12.69,13.65,11.89,0,110.2,13.38,13.49,270.4
"2009-11-27 01:22:30",1451971,8.88,309.2,2.905,0.401,13.38,105.244,12.7,13.7,11.93,0,110.2,13.38,13.49,271.2
"2009-11-27 01:23:00",1451972,9.58,318.5,6.794,1.212,16.94,105.2468,12.7,13.88,12.29,0,110.2,13.34,13.50,280.5
"2009-11-27 01:23:30",1451973,8.7,312.3,9.07,1.283,15.08,105.248,12.71,13.77,12.25,0,110.2,13.34,13.50,274.3
"2009-11-27 01:24:00",1451974,8.97,313.1,6.867,1.296,15.37,105.2489,12.71,13.91,12.48,0,110.2,13.34,13.51,275.1
"2009-11-27 01:24:30",1451975,9.61,315,6.969,1.499,14.34,105.2489,12.71,13.72,12.22,0,110.3,13.34,13.51,277.0
"2009-11-27 01:25:00",1451976,8.97,314,6.792,1.099,13.93,105.248,12.71,13.76,12.24,0,110.2,13.34,13.50,276.0
"2009-11-27 01:25:30",1451977,8.43,307.9,2.065,0.455,12.27,105.2486,12.71,13.64,12.23,0,110.2,13.38,13.51,269.9
"2009-11-27 01:26:00",1451978,8.66,313,3.339,0.564,12.46,105.2486,12.71,13.64,12.39,0,110.2,13.38,13.51,275.0
"2009-11-27 01:26:30",1451979,8.49,319.4,5.871,1.249,14.31,105.2489,12.71,13.77,12.67,0,110.2,13.35,13.51,281.4
"2009-11-27 01:27:00",1451980,11.47,318.7,6.369,1.592,16.79,105.248,12.71,13.89,12.87,0,110.2,13.35,13.50,280.7
"2009-11-27 01:27:30",1451981,9.34,311.7,9.83,2.124,14.7,105.2483,12.71,13.88,12.88,0,110.2,13.35,13.50,273.7
"2009-11-27 01:28:00",1451982,10.49,314.9,10.62,1.689,16.14,105.2486,12.71,13.87,13,0,110.2,13.35,13.51,276.9
"2009-11-27 01:28:30",1451983,9.53,317.3,8.39,1.706,14.54,105.2466,12.7,13.78,13.35,0,110.2,13.35,13.50,279.3
"2009-11-27 01:29:00",1451984,8.01,312.2,5.081,0.474,11.9,105.239,12.68,13.61,13.12,0,110.2,13.38,13.48,274.2
"2009-11-27 01:29:30",1451985,9.98,314,1.863,0.787,12.23,105.2362,12.68,13.62,13.07,0,110.2,13.38,13.47,276.0
"2009-11-27 01:30:00",1451986,8.71,313,4.444,1.106,12.46,105.2294,12.66,13.68,13.09,0,110.2,13.38,13.46,275.0
"2009-11-27 01:30:30",1451987,11.39,324.7,6.178,1.631,16.72,105.2196,12.63,13.89,13.31,0,110.2,13.35,13.43,286.7
"2009-11-27 01:31:00",1451988,12.05,321.1,6.294,1.371,15.8,105.215,12.62,13.79,13,0,110.2,13.35,13.42,283.1
"2009-11-27 01:31:30",1451989,10.85,318.9,5.931,1.153,14.28,105.215,12.62,13.76,12.96,0,110.2,13.35,13.42,280.9
"2009-11-27 01:32:00",1451990,13,325,6.605,1.114,16.09,105.2147,12.62,13.8,13.05,0,110.2,13.35,13.42,287.0
"2009-11-27 01:32:30",1451991,11.17,314,2.314,0.534,12.92,105.215,12.62,13.69,12.84,0,110.2,13.35,13.42,276.0
"2009-11-27 01:33:00",1451992,10.8,314.4,1.791,0.158,12.44,105.215,12.62,13.58,12.6,0,110.2,13.38,13.42,276.4
"2009-11-27 01:33:30",1451993,11.38,318.7,6.004,1.184,13.97,105.215,12.62,13.59,12.81,0,110.2,13.35,13.42,280.7
"2009-11-27 01:34:00",1451994,11.24,317.7,5.747,1.062,14.44,105.215,12.62,13.73,12.91,0,110.3,13.35,13.42,279.7
"2009-11-27 01:34:30",1451995,10.47,318.9,6.708,1.266,14.74,105.215,12.62,13.8,13.02,0,110.2,13.35,13.42,280.9
"2009-11-27 01:35:00",1451996,11.44,325.2,5.949,1.322,16.32,105.2108,12.61,13.82,13.15,0,110.2,13.35,13.41,287.2
"2009-11-27 01:35:30",1451997,12.01,324,6.621,1.387,15.72,105.2077,12.6,13.83,13.22,0,110.2,13.35,13.40,286.0
"2009-11-27 01:36:00",1451998,11,316.9,4.494,0.897,13.37,105.206,12.6,13.61,13.01,0,110.2,13.35,13.40,278.9
"2009-11-27 01:36:30",1451999,11.45,317,4.555,0.802,13.2,105.2015,12.59,13.64,12.96,0,110.2,13.35,13.38,279.0
"2009-11-27 01:37:00",1452000,11.3,321.3,6.788,1.131,13.94,105.1973,12.58,13.71,13.01,0,110.2,13.34,13.37,283.3
"2009-11-27 01:37:30",1452001,10.91,317.7,5.488,1.159,13.3,105.1899,12.56,13.66,13.06,0,110.2,13.34,13.35,279.7
"2009-11-27 01:38:00",1452002,12.59,327.6,6.393,1.256,16.5,105.1831,12.54,13.73,13.25,0,110.2,13.34,13.34,289.6
"2009-11-27 01:38:30",1452003,12.36,326.1,7.046,1.346,15.88,105.1812,12.54,13.79,13.31,0,110.2,13.34,13.33,288.1
"2009-11-27 01:39:00",1452004,13.27,328.5,5.279,0.979,16.76,105.1812,12.54,13.82,13.32,0,110.2,13.34,13.33,290.5
"2009-11-27 01:39:30",1452005,11.5,318.9,3.737,0.777,13.42,105.1812,12.54,13.66,13.2,0,110.2,13.34,13.33,280.9
"2009-11-27 01:40:00",1452006,11.86,322,5.796,1.305,13.87,105.1812,12.54,13.54,12.85,0,110.2,13.34,13.33,284.0
"2009-11-27 01:40:30",1452007,11.64,322.6,6.937,1.3,14.55,105.1812,12.54,13.61,12.94,0,110.2,13.34,13.33,284.6
"2009-11-27 01:41:00",1452008,11.37,320.8,5.173,0.948,14.44,105.1812,12.54,13.66,13.02,0,110.2,13.34,13.33,282.8
"2009-11-27 01:41:30",1452009,11.26,322.1,5.772,0.915,14.33,105.1812,12.54,13.62,13.01,0,110.2,13.34,13.33,284.1
"2009-11-27 01:42:00",1452010,11.57,327.4,5.915,1.262,16.51,105.1812,12.54,13.77,13.17,0,110.2,13.34,13.33,289.4
"2009-11-27 01:42:30",1452011,11.3,321.3,6.616,1.112,16.11,105.1812,12.54,13.69,13.02,0,110.2,13.35,13.33,283.3
"2009-11-27 01:43:00",1452012,9.66,317.1,8.12,1.412,14.28,105.1812,12.54,13.65,12.91,0,110.2,13.35,13.33,279.1
"2009-11-27 01:43:30",1452013,9.75,314.6,3.49,0.791,12.48,105.1809,12.54,13.56,12.86,0,110.2,13.35,13.33,276.6
"2009-11-27 01:44:00",1452014,9.16,313.6,0.958,0.429,12.06,105.1812,12.54,13.56,12.99,0,110.2,13.38,13.33,275.6
"2009-11-27 01:44:30",1452015,11.02,320.8,6.088,1.266,14.75,105.1786,12.53,13.56,12.65,0,110.2,13.35,13.33,282.8
"2009-11-27 01:45:00",1452016,9.72,315.6,0.719,0.096,13.03,105.1733,12.52,13.56,12.33,0,110.2,13.39,13.31,277.6
"2009-11-27 01:45:30",1452017,9.48,314.4,0.586,0.151,13.23,105.1679,12.5,13.5,12.23,0,110.2,13.39,13.30,276.4
"2009-11-27 01:46:00",1452018,10.99,325,7.369,1.185,16.84,105.1685,12.5,13.73,12.44,0,110.2,13.35,13.30,287.0
"2009-11-27 01:46:30",1452019,11.01,327.6,6.968,1.282,16.89,105.1656,12.5,13.62,12.39,0,110.2,13.35,13.29,289.6
"2009-11-27 01:47:00",1452020,10.05,321.8,6.875,1.309,14.65,105.164,12.49,13.55,12.37,0,110.2,13.35,13.29,283.8